owner,sensor,date,latitude,longitude,vertical_datum,sea_water_temperature,qcFlag
Enven,ioos:station:wmo:42384:1,2021-09-16T18:40:00Z,27.9920,-90.3255,9.3,28.7,11111222
Enven,ioos:station:wmo:42384:1,2021-09-16T18:50:00Z,27.9920,-90.3255,9.2,28.7,11111222
Enven,ioos:station:wmo:42384:1,2021-09-16T19:00:00Z,27.9920,-90.3255,9.0,28.8,11111222
Enven,ioos:station:wmo:42384:1,2021-09-16T19:10:00Z,27.9920,-90.3255,9.0,28.8,11111222
Enven,ioos:station:wmo:42384:1,2021-09-16T19:20:00Z,27.9920,-90.3255,9.0,28.8,11111222
Enven,ioos:station:wmo:42384:1,2021-09-16T19:30:00Z,27.9920,-90.3255,9.0,28.8,11111222
Enven,ioos:station:wmo:42384:1,2021-09-16T19:40:00Z,27.9920,-90.3255,8.9,28.8,11111222
Enven,ioos:station:wmo:42384:1,2021-09-16T19:50:00Z,27.9920,-90.3255,8.7,28.8,11111222
Enven,ioos:station:wmo:42384:1,2021-09-16T20:00:00Z,27.9920,-90.3255,8.8,28.8,11111222
Enven,ioos:station:wmo:42384:1,2021-09-16T20:10:00Z,27.9920,-90.3255,8.6,28.8,11111222
Enven,ioos:station:wmo:42384:1,2021-09-16T20:20:00Z,27.9920,-90.3255,8.5,28.8,11111222
Enven,ioos:station:wmo:42384:1,2021-09-16T20:30:00Z,27.9920,-90.3255,8.4,28.9,11111222
Enven,ioos:station:wmo:42384:1,2021-09-16T20:40:00Z,27.9920,-90.3255,8.6,28.9,11111222
Enven,ioos:station:wmo:42384:1,2021-09-16T20:50:00Z,27.9920,-90.3255,8.5,28.9,11111222
Enven,ioos:station:wmo:42384:1,2021-09-16T21:00:00Z,27.9920,-90.3255,8.3,28.9,11111222
Enven,ioos:station:wmo:42384:1,2021-09-16T21:10:00Z,27.9920,-90.3255,8.3,28.9,11111222
Enven,ioos:station:wmo:42384:1,2021-09-16T21:20:00Z,27.9920,-90.3255,8.2,28.9,11111222
Enven,ioos:station:wmo:42384:1,2021-09-16T21:30:00Z,27.9920,-90.3255,8.4,28.9,11111222
Enven,ioos:station:wmo:42384:1,2021-09-16T21:40:00Z,27.9920,-90.3255,8.1,28.9,11111222
Enven,ioos:station:wmo:42384:1,2021-09-16T21:50:00Z,27.9920,-90.3255,8.1,28.9,11111222
Enven,ioos:station:wmo:42384:1,2021-09-16T22:00:00Z,27.9920,-90.3255,8.2,28.9,11111222
Enven,ioos:station:wmo:42384:1,2021-09-16T22:10:00Z,27.9920,-90.3255,8.2,28.9,11111222
Enven,ioos:station:wmo:42384:1,2021-09-16T22:20:00Z,27.9920,-90.3255,8.2,28.9,11111222
Enven,ioos:station:wmo:42384:1,2021-09-16T22:30:00Z,27.9920,-90.3255,8.2,28.9,11111222
Enven,ioos:station:wmo:42384:1,2021-09-16T22:40:00Z,27.9920,-90.3255,8.1,28.9,11111222
Enven,ioos:station:wmo:42384:1,2021-09-16T22:50:00Z,27.9920,-90.3255,8.0,28.9,11111222
Enven,ioos:station:wmo:42384:1,2021-09-16T23:00:00Z,27.9920,-90.3255,8.2,28.9,11111222
Enven,ioos:station:wmo:42384:1,2021-09-16T23:10:00Z,27.9920,-90.3255,8.0,28.9,11111222
Enven,ioos:station:wmo:42384:1,2021-09-16T23:20:00Z,27.9920,-90.3255,8.0,28.9,11111222
Enven,ioos:station:wmo:42384:1,2021-09-16T23:30:00Z,27.9920,-90.3255,8.0,28.8,11111222
Enven,ioos:station:wmo:42384:1,2021-09-16T23:40:00Z,27.9920,-90.3255,8.1,28.8,11111222
Enven,ioos:station:wmo:42384:1,2021-09-16T23:50:00Z,27.9920,-90.3255,7.9,28.8,11111222
Enven,ioos:station:wmo:42384:1,2021-09-17T00:00:00Z,27.9920,-90.3255,7.9,28.8,11111222
Enven,ioos:station:wmo:42384:1,2021-09-17T00:10:00Z,27.9920,-90.3255,7.9,28.8,11111222
Enven,ioos:station:wmo:42384:1,2021-09-17T00:20:00Z,27.9920,-90.3255,7.9,28.8,11111222
Enven,ioos:station:wmo:42384:1,2021-09-17T00:30:00Z,27.9920,-90.3255,8.0,28.8,11111222
Enven,ioos:station:wmo:42384:1,2021-09-17T00:40:00Z,27.9920,-90.3255,7.9,28.8,11111222
Enven,ioos:station:wmo:42384:1,2021-09-17T00:50:00Z,27.9920,-90.3255,7.9,28.8,11111222
Enven,ioos:station:wmo:42384:1,2021-09-17T01:00:00Z,27.9920,-90.3255,8.1,28.7,11111222
Enven,ioos:station:wmo:42384:1,2021-09-17T01:10:00Z,27.9920,-90.3255,8.0,28.7,11111222
Enven,ioos:station:wmo:42384:1,2021-09-17T01:20:00Z,27.9920,-90.3255,7.9,28.7,11111222
Enven,ioos:station:wmo:42384:1,2021-09-17T01:30:00Z,27.9920,-90.3255,7.8,28.7,11111222
Enven,ioos:station:wmo:42384:1,2021-09-17T01:40:00Z,27.9920,-90.3255,7.9,28.7,11111222
Enven,ioos:station:wmo:42384:1,2021-09-17T01:50:00Z,27.9920,-90.3255,7.9,28.7,11111222
Enven,ioos:station:wmo:42384:1,2021-09-17T02:00:00Z,27.9920,-90.3255,8.0,28.7,11111222
Enven,ioos:station:wmo:42384:1,2021-09-17T02:10:00Z,27.9920,-90.3255,8.0,28.7,11111222
Enven,ioos:station:wmo:42384:1,2021-09-17T02:20:00Z,27.9920,-90.3255,8.0,28.7,11111222
Enven,ioos:station:wmo:42384:1,2021-09-17T02:30:00Z,27.9920,-90.3255,8.0,28.7,11111222
Enven,ioos:station:wmo:42384:1,2021-09-17T02:40:00Z,27.9920,-90.3255,7.9,28.7,11111222
Enven,ioos:station:wmo:42384:1,2021-09-17T02:50:00Z,27.9920,-90.3255,8.0,28.7,11111222
Enven,ioos:station:wmo:42384:1,2021-09-17T03:00:00Z,27.9920,-90.3255,7.8,28.7,11111222
Enven,ioos:station:wmo:42384:1,2021-09-17T03:10:00Z,27.9920,-90.3255,7.9,28.7,11111222
Enven,ioos:station:wmo:42384:1,2021-09-17T03:20:00Z,27.9920,-90.3255,8.0,28.7,11111222
Enven,ioos:station:wmo:42384:1,2021-09-17T03:30:00Z,27.9920,-90.3255,7.8,28.7,11111222
Enven,ioos:station:wmo:42384:1,2021-09-17T03:40:00Z,27.9920,-90.3255,7.8,28.7,11111222
Enven,ioos:station:wmo:42384:1,2021-09-17T03:50:00Z,27.9920,-90.3255,7.9,28.7,11111222
Enven,ioos:station:wmo:42384:1,2021-09-17T04:00:00Z,27.9920,-90.3255,7.9,28.7,11111222
Enven,ioos:station:wmo:42384:1,2021-09-17T04:10:00Z,27.9920,-90.3255,8.0,28.7,11111222
Enven,ioos:station:wmo:42384:1,2021-09-17T04:20:00Z,27.9920,-90.3255,8.0,28.7,11111222
Enven,ioos:station:wmo:42384:1,2021-09-17T04:30:00Z,27.9920,-90.3255,8.0,28.7,11111222
Enven,ioos:station:wmo:42384:1,2021-09-17T04:40:00Z,27.9920,-90.3255,7.9,28.7,11111222
Enven,ioos:station:wmo:42384:1,2021-09-17T04:50:00Z,27.9920,-90.3255,8.0,28.7,11111222
Enven,ioos:station:wmo:42384:1,2021-09-17T05:00:00Z,27.9920,-90.3255,8.1,28.7,11111222
Enven,ioos:station:wmo:42384:1,2021-09-17T05:10:00Z,27.9920,-90.3255,8.1,28.7,11111222
Enven,ioos:station:wmo:42384:1,2021-09-17T05:20:00Z,27.9920,-90.3255,8.1,28.7,11111222
Enven,ioos:station:wmo:42384:1,2021-09-17T05:30:00Z,27.9920,-90.3255,8.0,28.6,11111222
Enven,ioos:station:wmo:42384:1,2021-09-17T05:40:00Z,27.9920,-90.3255,8.1,28.6,11111222
Enven,ioos:station:wmo:42384:1,2021-09-17T05:51:00Z,27.9920,-90.3255,8.3,28.6,11111222
Enven,ioos:station:wmo:42384:1,2021-09-17T06:01:00Z,27.9920,-90.3255,8.3,28.5,11111222
Enven,ioos:station:wmo:42384:1,2021-09-17T06:11:00Z,27.9920,-90.3255,8.5,28.5,11111222
Enven,ioos:station:wmo:42384:1,2021-09-17T06:21:00Z,27.9920,-90.3255,8.3,28.5,11111222
Enven,ioos:station:wmo:42384:1,2021-09-17T06:31:00Z,27.9920,-90.3255,8.2,28.5,11111222
Enven,ioos:station:wmo:42384:1,2021-09-17T06:41:00Z,27.9920,-90.3255,8.4,28.5,11111222
Enven,ioos:station:wmo:42384:1,2021-09-17T06:51:00Z,27.9920,-90.3255,8.3,28.5,11111222
Enven,ioos:station:wmo:42384:1,2021-09-17T07:01:00Z,27.9920,-90.3255,8.2,28.5,11111222
Enven,ioos:station:wmo:42384:1,2021-09-17T07:11:00Z,27.9920,-90.3255,8.3,28.5,11111222
Enven,ioos:station:wmo:42384:1,2021-09-17T07:21:00Z,27.9920,-90.3255,8.5,28.5,11111222
Enven,ioos:station:wmo:42384:1,2021-09-17T07:31:00Z,27.9920,-90.3255,8.5,28.5,11111222
Enven,ioos:station:wmo:42384:1,2021-09-17T07:41:00Z,27.9920,-90.3255,8.4,28.5,11111222
Enven,ioos:station:wmo:42384:1,2021-09-17T07:51:00Z,27.9920,-90.3255,8.4,28.5,11111222
Enven,ioos:station:wmo:42384:1,2021-09-17T08:01:00Z,27.9920,-90.3255,8.5,28.6,11111222
Enven,ioos:station:wmo:42384:1,2021-09-17T08:11:00Z,27.9920,-90.3255,8.5,28.6,11111222
Enven,ioos:station:wmo:42384:1,2021-09-17T08:21:00Z,27.9920,-90.3255,8.5,28.6,11111222
Enven,ioos:station:wmo:42384:1,2021-09-17T08:31:00Z,27.9920,-90.3255,8.5,28.6,11111222
Enven,ioos:station:wmo:42384:1,2021-09-17T08:41:00Z,27.9920,-90.3255,8.5,28.6,11111222
Enven,ioos:station:wmo:42384:1,2021-09-17T08:51:00Z,27.9920,-90.3255,8.5,28.6,11111222
Enven,ioos:station:wmo:42384:1,2021-09-17T09:01:00Z,27.9920,-90.3255,8.4,28.6,11111222
Enven,ioos:station:wmo:42384:1,2021-09-17T09:11:00Z,27.9920,-90.3255,8.5,28.6,11111222
Enven,ioos:station:wmo:42384:1,2021-09-17T09:21:00Z,27.9920,-90.3255,8.5,28.6,11111222
Enven,ioos:station:wmo:42384:1,2021-09-17T09:31:00Z,27.9920,-90.3255,8.6,28.6,11111222
Enven,ioos:station:wmo:42384:1,2021-09-17T09:41:00Z,27.9920,-90.3255,8.6,28.6,11111222
Enven,ioos:station:wmo:42384:1,2021-09-17T09:51:00Z,27.9920,-90.3255,8.6,28.6,11111222
Enven,ioos:station:wmo:42384:1,2021-09-17T10:01:00Z,27.9920,-90.3255,8.5,28.6,11111222
Enven,ioos:station:wmo:42384:1,2021-09-17T10:11:00Z,27.9920,-90.3255,8.5,28.6,11111222
Enven,ioos:station:wmo:42384:1,2021-09-17T10:21:00Z,27.9920,-90.3255,8.6,28.6,11111222
Enven,ioos:station:wmo:42384:1,2021-09-17T10:31:00Z,27.9920,-90.3255,8.5,28.6,11111222
Enven,ioos:station:wmo:42384:1,2021-09-17T10:41:00Z,27.9920,-90.3255,8.7,28.7,11111222
Enven,ioos:station:wmo:42384:1,2021-09-17T10:51:00Z,27.9920,-90.3255,8.6,28.7,11111222
Enven,ioos:station:wmo:42384:1,2021-09-17T11:01:00Z,27.9920,-90.3255,8.6,28.7,11111222
Enven,ioos:station:wmo:42384:1,2021-09-17T11:11:00Z,27.9920,-90.3255,8.7,28.7,11111222
Enven,ioos:station:wmo:42384:1,2021-09-17T11:21:00Z,27.9920,-90.3255,8.6,28.7,11111222
Enven,ioos:station:wmo:42384:1,2021-09-17T11:31:00Z,27.9920,-90.3255,8.7,28.7,11111222
Enven,ioos:station:wmo:42384:1,2021-09-17T11:41:00Z,27.9920,-90.3255,8.5,28.7,11111222
Enven,ioos:station:wmo:42384:1,2021-09-17T11:51:00Z,27.9920,-90.3255,8.6,28.7,11111222
Enven,ioos:station:wmo:42384:1,2021-09-17T12:01:00Z,27.9920,-90.3255,8.6,28.7,11111222
Enven,ioos:station:wmo:42384:1,2021-09-17T12:11:00Z,27.9920,-90.3255,8.6,28.7,11111222
Enven,ioos:station:wmo:42384:1,2021-09-17T12:21:00Z,27.9920,-90.3255,8.5,28.7,11111222
Enven,ioos:station:wmo:42384:1,2021-09-17T12:31:00Z,27.9920,-90.3255,8.6,28.7,11111222
Enven,ioos:station:wmo:42384:1,2021-09-17T12:41:00Z,27.9920,-90.3255,8.5,28.7,11111222
Enven,ioos:station:wmo:42384:1,2021-09-17T12:51:00Z,27.9920,-90.3255,8.6,28.7,11111222
Enven,ioos:station:wmo:42384:1,2021-09-17T13:01:00Z,27.9920,-90.3255,8.5,28.7,11111222
Enven,ioos:station:wmo:42384:1,2021-09-17T13:11:00Z,27.9920,-90.3255,8.7,28.7,11111222
Enven,ioos:station:wmo:42384:1,2021-09-17T13:21:00Z,27.9920,-90.3255,8.6,28.7,11111222
Enven,ioos:station:wmo:42384:1,2021-09-17T13:31:00Z,27.9920,-90.3255,8.5,28.7,11111222
Enven,ioos:station:wmo:42384:1,2021-09-17T13:41:00Z,27.9920,-90.3255,8.5,28.7,11111222
Enven,ioos:station:wmo:42384:1,2021-09-17T13:51:00Z,27.9920,-90.3255,8.6,28.7,11111222
Enven,ioos:station:wmo:42384:1,2021-09-17T14:01:00Z,27.9920,-90.3255,8.4,28.7,11111222
Enven,ioos:station:wmo:42384:1,2021-09-17T14:11:00Z,27.9920,-90.3255,8.6,28.7,11111222
Enven,ioos:station:wmo:42384:1,2021-09-17T14:21:00Z,27.9920,-90.3255,8.5,28.7,11111222
Enven,ioos:station:wmo:42384:1,2021-09-17T14:31:00Z,27.9920,-90.3255,8.5,28.7,11111222
Enven,ioos:station:wmo:42384:1,2021-09-17T14:41:00Z,27.9920,-90.3255,8.6,28.7,11111222
Enven,ioos:station:wmo:42384:1,2021-09-17T14:51:00Z,27.9920,-90.3255,8.4,28.7,11111222
Enven,ioos:station:wmo:42384:1,2021-09-17T15:01:00Z,27.9920,-90.3255,8.5,28.7,11111222
Enven,ioos:station:wmo:42384:1,2021-09-17T15:11:00Z,27.9920,-90.3255,8.6,28.7,11111222
Enven,ioos:station:wmo:42384:1,2021-09-17T15:21:00Z,27.9920,-90.3255,8.4,28.7,11111222
Enven,ioos:station:wmo:42384:1,2021-09-17T15:31:00Z,27.9920,-90.3255,8.5,28.7,11111222
Enven,ioos:station:wmo:42384:1,2021-09-17T15:41:00Z,27.9920,-90.3255,8.5,28.7,11111222
Enven,ioos:station:wmo:42384:1,2021-09-17T15:51:00Z,27.9920,-90.3255,8.5,28.7,11111222
Enven,ioos:station:wmo:42384:1,2021-09-17T16:01:00Z,27.9920,-90.3255,8.4,28.8,11111222
Enven,ioos:station:wmo:42384:1,2021-09-17T16:11:00Z,27.9920,-90.3255,8.4,28.8,11111222
Enven,ioos:station:wmo:42384:1,2021-09-17T16:21:00Z,27.9920,-90.3255,8.5,28.8,11111222
Enven,ioos:station:wmo:42384:1,2021-09-17T16:31:00Z,27.9920,-90.3255,8.4,28.8,11111222
Enven,ioos:station:wmo:42384:1,2021-09-17T16:41:00Z,27.9920,-90.3255,8.5,28.8,11111222
Enven,ioos:station:wmo:42384:1,2021-09-17T16:51:00Z,27.9920,-90.3255,8.4,28.8,11111222
Enven,ioos:station:wmo:42384:1,2021-09-17T17:01:00Z,27.9920,-90.3255,8.4,28.8,11111222
Enven,ioos:station:wmo:42384:1,2021-09-17T17:11:00Z,27.9920,-90.3255,8.4,28.8,11111222
Enven,ioos:station:wmo:42384:1,2021-09-17T17:21:00Z,27.9920,-90.3255,8.3,28.8,11111222
Enven,ioos:station:wmo:42384:1,2021-09-17T17:31:00Z,27.9920,-90.3255,8.3,28.8,11111222
Enven,ioos:station:wmo:42384:1,2021-09-17T17:41:00Z,27.9920,-90.3255,8.3,28.8,11111222
Enven,ioos:station:wmo:42384:1,2021-09-17T17:51:00Z,27.9920,-90.3255,8.1,28.8,11111222
Enven,ioos:station:wmo:42384:1,2021-09-17T18:01:00Z,27.9920,-90.3255,8.3,28.8,11111222
Enven,ioos:station:wmo:42384:1,2021-09-17T18:11:00Z,27.9920,-90.3255,8.3,28.8,11111222
Enven,ioos:station:wmo:42384:1,2021-09-17T18:21:00Z,27.9920,-90.3255,8.3,28.8,11111222
Enven,ioos:station:wmo:42384:1,2021-09-17T18:31:00Z,27.9920,-90.3255,8.3,28.8,11111222
Enven,ioos:station:wmo:42384:1,2021-09-17T18:41:00Z,27.9920,-90.3255,8.3,28.8,11111222
Enven,ioos:station:wmo:42384:1,2021-09-17T18:51:00Z,27.9920,-90.3255,8.4,28.8,11111222
Enven,ioos:station:wmo:42384:1,2021-09-17T19:01:00Z,27.9920,-90.3255,8.3,28.8,11111222
Enven,ioos:station:wmo:42384:1,2021-09-17T19:11:00Z,27.9920,-90.3255,8.2,28.8,11111222
Enven,ioos:station:wmo:42384:1,2021-09-17T19:21:00Z,27.9920,-90.3255,8.3,28.8,11111222
Enven,ioos:station:wmo:42384:1,2021-09-17T19:31:00Z,27.9920,-90.3255,8.1,28.8,11111222
Enven,ioos:station:wmo:42384:1,2021-09-17T19:41:00Z,27.9920,-90.3255,8.3,28.7,11111222
Enven,ioos:station:wmo:42384:1,2021-09-17T19:51:00Z,27.9920,-90.3255,8.3,28.7,11111222
Enven,ioos:station:wmo:42384:1,2021-09-17T20:01:00Z,27.9920,-90.3255,8.2,28.7,11111222
Enven,ioos:station:wmo:42384:1,2021-09-17T20:11:00Z,27.9920,-90.3255,8.3,28.7,11111222
Enven,ioos:station:wmo:42384:1,2021-09-17T20:21:00Z,27.9920,-90.3255,8.2,28.7,11111222
Enven,ioos:station:wmo:42384:1,2021-09-17T20:31:00Z,27.9920,-90.3255,8.3,28.7,11111222
Enven,ioos:station:wmo:42384:1,2021-09-17T20:41:00Z,27.9920,-90.3255,8.1,28.7,11111222
Enven,ioos:station:wmo:42384:1,2021-09-17T20:51:00Z,27.9920,-90.3255,8.3,28.7,11111222
Enven,ioos:station:wmo:42384:1,2021-09-17T21:01:00Z,27.9920,-90.3255,8.3,28.8,11111222
Enven,ioos:station:wmo:42384:1,2021-09-17T21:11:00Z,27.9920,-90.3255,8.2,28.8,11111222
Enven,ioos:station:wmo:42384:1,2021-09-17T21:21:00Z,27.9920,-90.3255,8.3,28.8,11111222
Enven,ioos:station:wmo:42384:1,2021-09-17T21:31:00Z,27.9920,-90.3255,8.3,28.8,11111222
Enven,ioos:station:wmo:42384:1,2021-09-17T21:41:00Z,27.9920,-90.3255,8.2,28.8,11111222
Enven,ioos:station:wmo:42384:1,2021-09-17T21:51:00Z,27.9920,-90.3255,8.2,28.8,11111222
Enven,ioos:station:wmo:42384:1,2021-09-17T22:01:00Z,27.9920,-90.3255,8.2,28.8,11111222
Enven,ioos:station:wmo:42384:1,2021-09-17T22:11:00Z,27.9920,-90.3255,8.3,28.8,11111222
Enven,ioos:station:wmo:42384:1,2021-09-17T22:21:00Z,27.9920,-90.3255,8.1,28.8,11111222
Enven,ioos:station:wmo:42384:1,2021-09-17T22:31:00Z,27.9920,-90.3255,8.2,28.8,11111222
Enven,ioos:station:wmo:42384:1,2021-09-17T22:41:00Z,27.9920,-90.3255,8.3,28.8,11111222
Enven,ioos:station:wmo:42384:1,2021-09-17T22:51:00Z,27.9920,-90.3255,8.1,28.8,11111222
Enven,ioos:station:wmo:42384:1,2021-09-17T23:01:00Z,27.9920,-90.3255,8.1,28.8,11111222
Enven,ioos:station:wmo:42384:1,2021-09-17T23:11:00Z,27.9920,-90.3255,8.1,28.9,11111222
Enven,ioos:station:wmo:42384:1,2021-09-17T23:21:00Z,27.9920,-90.3255,8.1,28.9,11111222
Enven,ioos:station:wmo:42384:1,2021-09-17T23:31:00Z,27.9920,-90.3255,8.1,28.9,11111222
Enven,ioos:station:wmo:42384:1,2021-09-17T23:42:00Z,27.9920,-90.3255,8.1,28.9,11111222
Enven,ioos:station:wmo:42384:1,2021-09-17T23:52:00Z,27.9920,-90.3255,8.1,28.9,11111222
Enven,ioos:station:wmo:42384:1,2021-09-18T00:02:00Z,27.9920,-90.3255,8.1,28.9,11111222
Enven,ioos:station:wmo:42384:1,2021-09-18T00:12:00Z,27.9920,-90.3255,8.1,28.9,11111222
Enven,ioos:station:wmo:42384:1,2021-09-18T00:22:00Z,27.9920,-90.3255,8.2,28.9,11111222
Enven,ioos:station:wmo:42384:1,2021-09-18T00:32:00Z,27.9920,-90.3255,8.1,28.8,11111222
Enven,ioos:station:wmo:42384:1,2021-09-18T00:42:00Z,27.9920,-90.3255,8.0,28.9,11111222
Enven,ioos:station:wmo:42384:1,2021-09-18T00:52:00Z,27.9920,-90.3255,8.3,28.8,11111222
Enven,ioos:station:wmo:42384:1,2021-09-18T01:02:00Z,27.9920,-90.3255,8.1,28.8,11111222
Enven,ioos:station:wmo:42384:1,2021-09-18T01:12:00Z,27.9920,-90.3255,8.2,28.8,11111222
Enven,ioos:station:wmo:42384:1,2021-09-18T01:22:00Z,27.9920,-90.3255,8.2,28.8,11111222
Enven,ioos:station:wmo:42384:1,2021-09-18T01:32:00Z,27.9920,-90.3255,8.3,28.8,11111222
Enven,ioos:station:wmo:42384:1,2021-09-18T01:42:00Z,27.9920,-90.3255,8.0,28.8,11111222
Enven,ioos:station:wmo:42384:1,2021-09-18T01:52:00Z,27.9920,-90.3255,8.1,28.8,11111222
Enven,ioos:station:wmo:42384:1,2021-09-18T02:02:00Z,27.9920,-90.3255,8.2,28.8,11111222
Enven,ioos:station:wmo:42384:1,2021-09-18T02:12:00Z,27.9920,-90.3255,8.3,28.8,11111222
Enven,ioos:station:wmo:42384:1,2021-09-18T02:22:00Z,27.9920,-90.3255,8.2,28.8,11111222
Enven,ioos:station:wmo:42384:1,2021-09-18T02:32:00Z,27.9920,-90.3255,8.3,28.8,11111222
Enven,ioos:station:wmo:42384:1,2021-09-18T02:42:00Z,27.9920,-90.3255,8.2,28.8,11111222
Enven,ioos:station:wmo:42384:1,2021-09-18T02:52:00Z,27.9920,-90.3255,8.2,28.8,11111222
Enven,ioos:station:wmo:42384:1,2021-09-18T03:02:00Z,27.9920,-90.3255,8.2,28.7,11111222
Enven,ioos:station:wmo:42384:1,2021-09-18T03:12:00Z,27.9920,-90.3255,8.2,28.7,11111222
Enven,ioos:station:wmo:42384:1,2021-09-18T03:22:00Z,27.9920,-90.3255,8.3,28.7,11111222
Enven,ioos:station:wmo:42384:1,2021-09-18T03:32:00Z,27.9920,-90.3255,8.3,28.8,11111222
Enven,ioos:station:wmo:42384:1,2021-09-18T03:42:00Z,27.9920,-90.3255,8.3,28.7,11111222
Enven,ioos:station:wmo:42384:1,2021-09-18T03:52:00Z,27.9920,-90.3255,8.3,28.7,11111222
Enven,ioos:station:wmo:42384:1,2021-09-18T04:02:00Z,27.9920,-90.3255,8.5,28.7,11111222
Enven,ioos:station:wmo:42384:1,2021-09-18T04:12:00Z,27.9920,-90.3255,8.4,28.7,11111222
Enven,ioos:station:wmo:42384:1,2021-09-18T04:22:00Z,27.9920,-90.3255,8.6,28.7,11111222
Enven,ioos:station:wmo:42384:1,2021-09-18T04:32:00Z,27.9920,-90.3255,8.5,28.7,11111222
Enven,ioos:station:wmo:42384:1,2021-09-18T04:42:00Z,27.9920,-90.3255,8.4,28.7,11111222
Enven,ioos:station:wmo:42384:1,2021-09-18T04:52:00Z,27.9920,-90.3255,8.5,28.7,11111222
Enven,ioos:station:wmo:42384:1,2021-09-18T05:02:00Z,27.9920,-90.3255,8.6,28.7,11111222
Enven,ioos:station:wmo:42384:1,2021-09-18T05:12:00Z,27.9920,-90.3255,8.4,28.7,11111222
Enven,ioos:station:wmo:42384:1,2021-09-18T05:22:00Z,27.9920,-90.3255,8.3,28.7,11111222
Enven,ioos:station:wmo:42384:1,2021-09-18T05:32:00Z,27.9920,-90.3255,8.5,28.7,11111222
Enven,ioos:station:wmo:42384:1,2021-09-18T05:42:00Z,27.9920,-90.3255,8.6,28.7,11111222
Enven,ioos:station:wmo:42384:1,2021-09-18T05:52:00Z,27.9920,-90.3255,8.6,28.7,11111222
Enven,ioos:station:wmo:42384:1,2021-09-18T06:02:00Z,27.9920,-90.3255,8.5,28.7,11111222
Enven,ioos:station:wmo:42384:1,2021-09-18T06:12:00Z,27.9920,-90.3255,8.5,28.7,11111222
Enven,ioos:station:wmo:42384:1,2021-09-18T06:22:00Z,27.9920,-90.3255,8.6,28.7,11111222
Enven,ioos:station:wmo:42384:1,2021-09-18T06:32:00Z,27.9920,-90.3255,8.6,28.6,11111222
Enven,ioos:station:wmo:42384:1,2021-09-18T06:42:00Z,27.9920,-90.3255,8.6,28.6,11111222
Enven,ioos:station:wmo:42384:1,2021-09-18T06:52:00Z,27.9920,-90.3255,8.6,28.6,11111222
Enven,ioos:station:wmo:42384:1,2021-09-18T07:02:00Z,27.9920,-90.3255,8.5,28.6,11111222
Enven,ioos:station:wmo:42384:1,2021-09-18T07:12:00Z,27.9920,-90.3255,8.5,28.6,11111222
Enven,ioos:station:wmo:42384:1,2021-09-18T07:22:00Z,27.9920,-90.3255,8.6,28.7,11111222
Enven,ioos:station:wmo:42384:1,2021-09-18T07:32:00Z,27.9920,-90.3255,8.6,28.7,11111222
Enven,ioos:station:wmo:42384:1,2021-09-18T07:42:00Z,27.9920,-90.3255,8.6,28.7,11111222
Enven,ioos:station:wmo:42384:1,2021-09-18T07:52:00Z,27.9920,-90.3255,8.6,28.7,11111222
Enven,ioos:station:wmo:42384:1,2021-09-18T08:02:00Z,27.9920,-90.3255,8.6,28.7,11111222
Enven,ioos:station:wmo:42384:1,2021-09-18T08:12:00Z,27.9920,-90.3255,8.7,28.7,11111222
Enven,ioos:station:wmo:42384:1,2021-09-18T08:22:00Z,27.9920,-90.3255,8.6,28.7,11111222
Enven,ioos:station:wmo:42384:1,2021-09-18T08:32:00Z,27.9920,-90.3255,8.7,28.7,11111222
Enven,ioos:station:wmo:42384:1,2021-09-18T08:42:00Z,27.9920,-90.3255,8.6,28.7,11111222
Enven,ioos:station:wmo:42384:1,2021-09-18T08:52:00Z,27.9920,-90.3255,8.6,28.7,11111222
Enven,ioos:station:wmo:42384:1,2021-09-18T09:02:00Z,27.9920,-90.3255,8.5,28.7,11111222
Enven,ioos:station:wmo:42384:1,2021-09-18T09:12:00Z,27.9920,-90.3255,8.7,28.7,11111222
Enven,ioos:station:wmo:42384:1,2021-09-18T09:22:00Z,27.9920,-90.3255,8.7,28.7,11111222
Enven,ioos:station:wmo:42384:1,2021-09-18T09:32:00Z,27.9920,-90.3255,8.7,28.7,11111222
Enven,ioos:station:wmo:42384:1,2021-09-18T09:42:00Z,27.9920,-90.3255,8.7,28.7,11111222
Enven,ioos:station:wmo:42384:1,2021-09-18T09:52:00Z,27.9920,-90.3255,8.7,28.7,11111222
Enven,ioos:station:wmo:42384:1,2021-09-18T10:02:00Z,27.9920,-90.3255,8.7,28.7,11111222
Enven,ioos:station:wmo:42384:1,2021-09-18T10:12:00Z,27.9920,-90.3255,8.7,28.7,11111222
Enven,ioos:station:wmo:42384:1,2021-09-18T10:22:00Z,27.9920,-90.3255,8.7,28.7,11111222
Enven,ioos:station:wmo:42384:1,2021-09-18T10:32:00Z,27.9920,-90.3255,8.9,28.7,11111222
Enven,ioos:station:wmo:42384:1,2021-09-18T10:42:00Z,27.9920,-90.3255,8.6,28.7,11111222
Enven,ioos:station:wmo:42384:1,2021-09-18T10:52:00Z,27.9920,-90.3255,8.8,28.7,11111222
Enven,ioos:station:wmo:42384:1,2021-09-18T11:02:00Z,27.9920,-90.3255,8.7,28.7,11111222
Enven,ioos:station:wmo:42384:1,2021-09-18T11:12:00Z,27.9920,-90.3255,8.5,28.7,11111222
Enven,ioos:station:wmo:42384:1,2021-09-18T11:22:00Z,27.9920,-90.3255,8.8,28.7,11111222
Enven,ioos:station:wmo:42384:1,2021-09-18T11:32:00Z,27.9920,-90.3255,8.8,28.7,11111222
Enven,ioos:station:wmo:42384:1,2021-09-18T11:42:00Z,27.9920,-90.3255,8.7,28.6,11111222
Enven,ioos:station:wmo:42384:1,2021-09-18T11:52:00Z,27.9920,-90.3255,8.7,28.6,11111222
Enven,ioos:station:wmo:42384:1,2021-09-18T12:02:00Z,27.9920,-90.3255,8.8,28.6,11111222
Enven,ioos:station:wmo:42384:1,2021-09-18T12:12:00Z,27.9920,-90.3255,8.7,28.6,11111222
Enven,ioos:station:wmo:42384:1,2021-09-18T12:22:00Z,27.9920,-90.3255,8.8,28.6,11111222
Enven,ioos:station:wmo:42384:1,2021-09-18T12:32:00Z,27.9920,-90.3255,8.7,28.6,11111222
Enven,ioos:station:wmo:42384:1,2021-09-18T12:42:00Z,27.9920,-90.3255,8.8,28.6,11111222
Enven,ioos:station:wmo:42384:1,2021-09-18T12:52:00Z,27.9920,-90.3255,8.8,28.6,11111222
Enven,ioos:station:wmo:42384:1,2021-09-18T13:02:00Z,27.9920,-90.3255,8.8,28.6,11111222
Enven,ioos:station:wmo:42384:1,2021-09-18T13:12:00Z,27.9920,-90.3255,8.9,28.6,11111222
Enven,ioos:station:wmo:42384:1,2021-09-18T13:22:00Z,27.9920,-90.3255,8.9,28.6,11111222
Enven,ioos:station:wmo:42384:1,2021-09-18T13:32:00Z,27.9920,-90.3255,8.7,28.6,11111222
Enven,ioos:station:wmo:42384:1,2021-09-18T13:42:00Z,27.9920,-90.3255,8.8,28.6,11111222
Enven,ioos:station:wmo:42384:1,2021-09-18T13:52:00Z,27.9920,-90.3255,8.8,28.6,11111222
Enven,ioos:station:wmo:42384:1,2021-09-18T14:02:00Z,27.9920,-90.3255,8.9,28.6,11111222
Enven,ioos:station:wmo:42384:1,2021-09-18T14:12:00Z,27.9920,-90.3255,8.8,28.6,11111222
Enven,ioos:station:wmo:42384:1,2021-09-18T14:22:00Z,27.9920,-90.3255,9.0,28.6,11111222
Enven,ioos:station:wmo:42384:1,2021-09-18T14:32:00Z,27.9920,-90.3255,9.0,28.6,11111222
Enven,ioos:station:wmo:42384:1,2021-09-18T14:42:00Z,27.9920,-90.3255,8.8,28.6,11111222
Enven,ioos:station:wmo:42384:1,2021-09-18T14:52:00Z,27.9920,-90.3255,8.8,28.6,11111222
Enven,ioos:station:wmo:42384:1,2021-09-18T15:02:00Z,27.9920,-90.3255,8.8,28.6,11111222
Enven,ioos:station:wmo:42384:1,2021-09-18T15:12:00Z,27.9920,-90.3255,8.6,28.6,11111222
Enven,ioos:station:wmo:42384:1,2021-09-18T15:22:00Z,27.9920,-90.3255,8.7,28.6,11111222
Enven,ioos:station:wmo:42384:1,2021-09-18T15:32:00Z,27.9920,-90.3255,8.9,28.6,11111222
Enven,ioos:station:wmo:42384:1,2021-09-18T15:42:00Z,27.9920,-90.3255,8.9,28.6,11111222